Theta_e
305 305 306 306 306 306 306 306 305 304 303 298 296 296 288 288 287 300 305 305 304 294 286 287 287 287 290 294 293 295 294 292 294 294 297 293 294 290 288 288 287 289 287 288 287 288 284 286 281 283 287 286 288 291 291 291 290 290 288 289 291 293 283 281 282 286 288 290 293 296 298 295 291 291 292 290 286 287 284 284 286 282 282 280 278 279 278
305 305 306 306 306 306 306 306 305 304 303 299 297 290 288 289 289 292 304 305 304 292 283 282 284 288 293 293 292 295 294 293 292 293 294 292 289 286 286 287 291 288 293 290 286 290 282 288 286 283 288 287 293 295 293 292 289 288 288 285 293 283 286 283 277 275 278 282 288 289 295 293 288 286 289 291 291 290 289 289 289 282 284 284 280 275 279
305 305 305 306 306 306 306 306 306 304 304 303 296 289 289 287 291 291 296 304 301 290 288 286 287 290 290 290 288 289 291 295 295 292 291 296 293 289 286 288 290 289 292 291 292 292 289 285 290 289 289 288 295 295 295 296 293 292 295 296 295 287 285 282 275 271 269 271 273 276 281 285 287 289 290 291 290 288 286 281 284 281 285 288 282 279 285
304 305 305 305 306 306 306 306 305 304 303 303 297 293 290 287 281 287 291 296 298 295 296 294 292 290 288 285 287 291 290 293 296 293 294 297 295 293 292 292 293 290 290 288 288 288 292 288 287 286 286 289 292 294 295 295 294 298 301 299 295 288 289 287 284 280 277 281 284 289 290 287 283 286 288 289 290 291 290 288 283 281 284 284 286 286 286
304 305 305 305 306 306 306 305 304 304 303 304 297 295 289 288 281 282 281 286 288 290 292 291 288 284 288 282 289 288 290 290 293 298 291 296 294 293 293 290 287 288 289 286 286 288 288 291 289 287 287 289 291 295 295 296 297 301 300 300 295 290 285 286 287 286 287 288 288 291 292 287 288 287 287 290 289 290 289 285 282 289 285 282 287 292 289
305 305 305 305 306 306 306 305 305 304 303 303 296 286 289 281 283 286 287 283 280 282 283 287 286 288 289 285 292 289 287 288 287 294 298 298 296 290 291 291 290 290 289 289 284 286 285 286 281 287 289 289 291 292 296 294 301 300 296 299 294 286 282 287 288 286 288 290 290 292 292 291 290 290 290 288 289 289 287 286 289 290 284 284 289 293 291
305 304 305 305 306 306 306 305 305 304 303 302 293 285 288 287 286 287 289 281 283 284 286 287 286 287 288 287 291 287 287 286 290 291 292 294 293 293 285 288 292 292 293 288 284 287 284 281 284 285 285 288 289 287 290 293 299 295 295 295 293 286 281 287 289 286 287 289 291 292 291 290 290 290 291 290 289 290 289 289 290 289 289 292 293 294 293
304 305 305 305 305 305 305 305 305 304 302 299 293 290 284 283 283 281 287 287 285 285 286 287 287 284 289 284 286 288 287 286 289 292 292 288 290 293 289 291 293 293 292 289 285 286 289 289 285 288 289 289 289 288 288 287 294 295 294 295 294 289 282 291 289 284 285 288 291 291 291 290 287 289 290 290 290 291 291 291 291 292 291 292 293 292 293
304 304 305 305 305 305 305 305 305 304 302 293 292 291 292 289 290 289 284 281 282 287 285 284 284 282 285 284 287 287 287 286 289 289 295 295 291 293 291 293 292 293 293 292 289 292 291 292 291 292 292 287 291 289 288 294 290 294 293 293 289 289 282 289 285 281 282 287 288 290 291 290 288 287 288 289 289 287 290 288 293 293 291 292 291 290 291
304 304 304 305 305 305 305 305 305 304 302 294 293 290 296 294 293 291 286 280 286 282 284 284 283 280 284 286 286 286 286 288 289 287 295 297 299 297 296 295 293 292 292 291 294 297 298 297 297 297 297 297 296 297 296 296 292 291 293 294 288 288 285 280 281 279 278 286 288 289 287 285 283 284 287 290 290 290 292 294 297 297 297 290 285 291 295
304 304 304 305 304 305 305 305 305 305 300 294 293 292 294 292 290 290 286 279 279 281 282 281 281 285 285 287 285 287 287 288 289 287 287 294 294 298 299 296 293 291 291 295 301 302 301 302 301 300 298 297 296 297 297 297 297 295 292 290 288 289 285 283 285 279 280 285 286 287 281 275 278 289 293 293 291 292 291 291 293 296 298 296 296 299 300
304 304 304 304 304 305 305 305 305 305 302 296 295 292 295 297 295 291 282 280 281 283 281 279 281 283 283 286 286 285 285 286 288 294 289 291 294 296 297 296 295 288 298 303 303 304 303 301 300 298 298 297 297 297 297 295 296 295 296 290 288 287 284 282 286 280 281 284 283 278 272 277 288 293 296 297 296 297 294 294 294 296 299 300 300 303 302
304 304 304 304 305 305 305 304 305 305 305 300 295 290 295 298 295 289 286 283 280 281 278 280 284 284 286 285 285 285 286 288 292 293 293 292 292 294 298 297 295 296 303 302 303 301 291 287 288 289 290 293 294 295 294 293 292 294 295 296 290 283 282 282 281 282 282 282 279 272 272 285 292 294 297 298 296 295 295 292 295 298 298 301 300 303 303
304 304 304 304 304 305 304 304 304 305 305 303 295 294 296 298 294 290 287 283 282 284 283 282 283 283 284 284 285 285 287 289 291 292 290 293 291 293 297 300 298 302 304 304 299 294 287 286 281 283 285 285 284 284 290 293 295 295 295 296 296 291 289 283 281 285 280 278 277 278 286 288 291 291 293 292 290 291 290 284 290 298 299 300 302 302 302
304 304 304 304 304 304 304 303 304 305 305 305 298 295 295 296 296 293 292 288 282 285 284 278 282 283 284 284 285 283 285 287 287 287 291 294 293 295 298 299 299 302 304 299 292 291 285 284 282 282 281 282 279 280 289 287 293 295 295 295 295 294 287 288 286 283 283 280 279 280 280 277 283 291 296 298 299 299 298 293 289 297 300 301 302 301 302
304 304 304 304 304 304 303 304 304 305 305 305 298 296 297 298 299 298 294 288 285 280 282 285 287 285 284 284 285 283 283 284 285 287 287 288 291 294 298 299 299 303 301 298 293 289 283 283 283 283 282 283 287 284 281 286 286 293 296 296 295 296 295 290 285 281 280 280 279 279 277 280 286 291 298 302 303 304 302 291 287 295 298 301 300 303 303
304 304 304 304 304 304 304 304 304 305 305 304 299 297 296 300 298 296 293 291 288 283 290 290 289 287 285 283 284 283 285 283 286 282 281 284 288 292 295 298 300 300 297 291 290 286 285 284 283 283 283 289 284 284 286 284 284 286 293 295 293 290 285 284 283 281 281 279 280 279 279 282 290 298 301 303 304 305 293 282 283 292 298 305 302 303 304
305 304 304 304 304 304 304 304 304 305 305 305 302 296 295 299 299 299 295 292 287 286 289 291 289 286 284 283 283 286 288 287 286 286 283 287 288 290 292 294 295 300 300 288 287 283 283 284 283 284 283 290 291 289 282 285 283 285 286 286 282 283 284 284 281 280 281 282 279 279 282 288 296 300 302 304 305 295 284 281 286 294 302 304 302 304 304
304 304 304 304 304 304 303 303 304 305 305 304 302 299 296 296 298 298 295 292 290 285 291 295 295 291 291 292 289 289 290 288 286 282 282 283 286 292 293 295 298 289 296 287 286 284 284 284 290 288 284 286 290 283 288 284 284 289 290 284 282 283 283 283 282 282 281 279 280 281 282 289 301 303 303 304 295 283 280 289 295 300 303 307 305 305 305
304 304 303 304 304 304 303 303 304 304 304 304 302 296 297 299 299 299 295 290 290 288 292 293 293 290 292 289 285 285 287 287 287 283 281 282 289 292 290 286 291 294 289 291 285 288 285 284 286 290 286 285 287 294 288 287 290 287 289 291 285 287 284 282 281 282 283 282 278 278 278 287 302 303 300 301 287 285 295 302 305 307 307 309 308 308 308
304 304 304 304 304 304 303 303 304 304 304 304 302 297 295 298 299 301 301 297 291 286 289 296 295 292 292 291 292 292 289 286 286 284 287 287 290 288 281 282 287 290 286 287 285 285 287 285 288 287 291 289 290 291 285 285 287 295 294 291 290 294 284 284 284 289 284 282 280 281 289 297 303 302 292 301 303 305 304 303 302 307 308 307 308 309 309
304 304 304 304 304 304 304 304 304 304 304 304 303 299 294 297 299 300 301 299 292 288 290 294 296 295 296 297 296 296 294 293 294 293 288 285 288 288 288 290 290 291 292 294 290 289 292 291 293 288 286 288 293 287 289 285 284 290 296 296 284 295 288 289 285 293 289 285 286 294 298 300 303 305 305 306 307 308 307 306 306 305 309 307 309 309 310
304 304 303 303 303 303 303 303 304 304 304 304 302 297 294 296 297 300 298 294 296 296 297 296 296 296 298 298 300 300 299 299 297 295 293 288 284 287 289 288 289 295 296 296 292 291 292 292 286 291 288 291 289 287 290 289 284 290 287 296 294 299 300 297 293 291 298 300 299 301 300 302 303 305 305 306 307 309 308 307 305 306 306 307 309 310 311
304 304 303 303 303 303 303 303 304 304 304 304 303 297 295 296 297 297 296 295 292 288 292 294 288 285 288 291 295 297 298 297 297 297 298 295 284 284 289 293 296 296 292 295 298 294 292 292 292 293 287 292 295 287 285 285 286 293 291 288 295 300 301 297 291 296 292 286 296 298 300 303 305 305 307 308 309 308 309 309 309 308 308 310 310 309 309
304 304 303 303 303 303 303 303 304 304 304 304 303 301 299 296 297 297 293 286 287 286 284 287 289 294 296 298 298 296 296 298 297 297 297 296 294 289 288 294 298 294 292 295 297 296 288 289 290 288 286 294 296 287 293 289 289 297 288 290 293 291 302 295 294 295 289 288 297 301 304 304 305 304 304 305 307 308 309 311 311 310 310 309 310 311 311
304 304 303 303 303 303 303 304 304 304 304 304 303 298 296 295 297 297 296 295 294 292 285 284 287 295 297 296 293 295 298 297 297 297 296 297 298 297 296 296 296 300 297 297 297 292 290 288 287 288 288 288 298 288 287 294 293 297 293 292 297 298 300 289 296 291 294 299 302 303 304 304 305 305 305 306 306 307 309 310 310 311 310 311 312 311 310
304 304 303 303 303 304 304 304 304 304 304 304 302 298 296 297 298 296 294 294 289 285 286 284 289 293 295 292 295 297 298 297 297 297 297 298 298 298 297 295 295 294 295 294 293 292 289 288 286 286 290 290 295 294 294 293 294 291 288 295 300 297 291 297 292 287 287 290 297 302 291 290 301 304 305 307 309 309 310 310 309 310 310 310 311 312 312
304 304 303 303 303 303 303 304 304 304 304 303 301 298 298 296 297 297 298 297 292 286 286 286 286 290 294 291 296 296 296 297 297 297 296 297 298 298 297 296 295 294 292 291 287 287 288 288 289 285 288 292 293 289 294 295 296 291 290 295 300 295 297 295 289 288 287 298 303 304 303 301 302 304 307 309 309 309 308 308 308 310 310 311 311 311 311
304 304 304 303 303 303 303 304 304 304 303 302 297 296 295 297 298 299 300 302 300 294 290 288 290 287 281 288 295 294 297 297 297 297 297 298 298 298 297 297 296 295 294 290 287 287 286 287 286 290 290 293 293 287 290 286 287 287 293 300 301 302 303 302 300 300 301 304 304 305 303 301 304 307 308 309 309 308 308 310 310 310 311 312 311 312 311
304 304 303 303 303 303 303 303 304 303 303 298 293 289 285 292 300 300 302 305 301 297 286 283 280 283 292 292 291 294 295 297 297 297 297 297 296 297 297 297 296 297 296 288 286 288 284 287 286 290 296 302 292 285 287 286 287 289 298 301 303 304 305 304 305 302 300 306 306 307 306 307 308 308 309 309 310 309 307 308 309 311 312 312 312 312 312
304 304 304 303 303 303 303 303 303 303 302 293 291 283 283 282 292 302 302 301 298 292 285 284 284 288 286 291 292 292 294 295 295 296 296 297 297 298 299 299 297 297 290 290 291 286 285 286 285 289 296 300 293 289 288 286 285 287 295 300 303 303 303 304 305 307 306 306 307 308 308 307 307 307 308 307 308 309 307 308 310 311 311 311 311 311 311
304 304 303 303 303 303 303 303 303 303 299 295 289 286 286 288 292 299 301 301 298 291 284 283 284 283 282 286 292 295 295 296 297 297 295 298 297 300 299 300 297 298 292 286 285 288 287 285 286 290 292 296 294 289 290 287 286 290 297 299 301 302 304 305 305 307 309 309 307 304 303 305 306 304 303 307 308 308 308 308 310 310 310 311 312 312 311
304 304 303 303 303 303 303 303 304 303 299 300 302 303 302 302 303 303 302 298 294 289 289 285 282 285 283 286 292 294 297 296 294 295 294 298 298 299 295 297 299 299 303 295 288 288 286 286 285 287 292 295 288 289 288 286 290 295 299 300 302 303 304 305 308 307 307 307 306 301 299 301 304 307 307 307 308 307 308 308 310 310 309 309 308 309 310
304 303 303 303 303 303 303 304 304 303 301 297 292 293 297 301 301 302 298 296 291 289 288 284 283 283 283 290 285 291 297 291 290 292 288 293 300 298 290 294 294 291 292 291 287 291 287 291 289 286 290 289 289 286 285 288 295 298 300 302 302 303 303 304 305 305 305 306 306 306 306 306 306 307 307 307 307 308 308 309 309 308 307 307 307 307 307
303 303 303 303 303 304 303 303 300 298 293 294 293 295 298 303 304 305 300 293 285 284 286 286 286 282 282 282 278 286 295 293 289 292 289 291 297 296 294 291 288 289 287 296 288 287 286 290 293 289 285 287 286 284 285 292 296 299 300 300 301 301 301 301 302 303 305 306 307 307 308 308 306 305 306 306 306 307 307 307 307 307 306 306 306 306 306
303 303 303 303 303 303 300 299 297 295 292 291 293 301 305 306 304 299 297 295 293 287 285 286 286 283 283 279 279 284 296 290 291 292 293 290 291 295 293 287 287 288 293 290 284 288 288 294 292 286 282 285 285 288 294 297 297 298 298 299 299 301 300 301 302 303 304 305 306 307 307 306 305 305 306 306 306 306 306 306 306 307 306 306 306 307 307
303 303 303 303 300 297 292 290 296 295 294 298 303 304 305 304 302 300 297 296 299 299 290 286 284 284 284 281 282 285 291 284 289 288 289 288 287 285 287 285 285 285 287 286 286 286 288 295 287 285 283 285 289 291 296 299 298 297 297 299 300 301 302 302 303 303 303 304 305 304 304 304 304 304 304 305 305 305 306 305 305 305 305 305 306 306 306
303 303 298 296 293 286 285 286 295 299 305 303 303 296 292 293 285 287 291 289 293 296 289 290 284 287 288 284 281 289 290 285 288 287 283 284 287 285 285 287 284 286 282 281 284 293 291 287 284 284 287 290 294 297 298 297 298 297 298 299 299 300 301 302 303 303 301 300 300 302 302 303 303 303 302 303 304 304 303 304 305 306 305 305 306 306 308
301 298 295 293 289 285 286 295 301 303 301 300 297 288 284 286 285 285 286 288 288 287 289 288 286 289 286 283 285 291 291 286 285 283 284 285 286 283 284 284 284 285 282 281 284 295 287 283 285 282 284 291 293 296 299 299 298 297 297 297 298 299 299 300 301 302 300 299 298 299 301 301 301 302 302 302 303 303 303 304 305 305 305 305 307 307 308
296 290 286 288 288 290 298 301 304 298 295 288 286 284 281 284 282 280 286 284 284 285 287 284 289 288 288 286 284 286 292 290 285 283 283 288 290 286 284 286 284 283 279 280 282 288 285 281 282 283 285 289 292 297 299 300 300 299 296 297 296 297 297 298 299 299 299 298 299 299 300 301 302 302 302 302 302 303 304 304 304 304 305 304 302 306 306
295 293 293 288 294 296 296 298 296 292 288 284 283 283 282 280 283 283 283 280 280 281 286 286 288 286 289 289 287 286 293 297 292 291 287 287 288 288 283 282 284 282 280 280 283 284 282 280 280 282 285 291 295 297 300 300 300 300 299 296 296 296 297 298 298 299 299 298 298 298 299 300 300 299 301 302 302 302 302 302 304 303 305 306 306 307 308
296 295 296 297 297 296 295 291 288 285 284 284 280 278 280 280 282 283 283 280 279 282 288 289 285 286 286 290 289 291 288 296 291 288 286 284 285 286 282 284 284 282 279 283 286 282 283 283 283 285 288 294 296 297 299 299 299 299 300 299 297 295 296 297 297 297 298 298 297 298 298 299 299 300 300 300 302 302 302 301 301 302 304 305 305 307 307
302 300 299 295 290 286 286 283 284 283 279 279 276 276 279 279 279 279 279 283 288 288 287 295 291 292 292 294 289 292 289 293 289 286 285 283 285 286 283 282 280 279 282 285 282 280 282 283 284 287 294 296 297 298 298 299 300 301 301 300 300 296 297 296 296 296 296 297 297 297 297 299 300 300 301 302 302 301 300 299 300 302 302 303 303 303 304
300 298 292 287 284 283 284 278 285 282 280 280 277 274 276 276 279 281 281 281 283 286 290 289 288 287 283 287 289 285 287 289 289 286 285 284 285 281 281 280 281 284 286 281 279 279 281 285 288 290 294 297 300 298 298 299 299 300 300 300 300 298 296 296 295 296 296 296 296 297 296 296 297 300 302 301 301 300 300 301 301 301 302 303 303 303 303
290 287 286 282 280 283 281 275 284 281 276 277 281 278 278 276 278 280 281 284 287 287 288 288 287 286 284 287 287 286 287 285 286 284 281 284 282 282 282 280 282 282 281 278 278 281 285 286 291 292 294 295 297 299 300 299 300 301 301 301 300 300 298 295 295 294 294 295 295 295 295 295 295 295 297 299 301 302 301 299 300 301 303 303 302 302 302
287 285 282 278 275 279 280 276 279 277 281 282 280 279 279 281 282 283 288 291 289 287 287 288 287 287 283 285 285 285 285 285 284 283 284 284 281 279 282 284 283 280 276 277 277 281 284 287 289 291 293 293 296 298 299 299 301 301 301 300 299 300 298 296 295 295 295 294 295 295 294 294 294 295 295 296 298 300 302 302 301 300 301 302 302 302 302
287 287 284 281 277 279 282 277 279 281 281 282 283 284 285 286 287 289 291 289 287 287 289 289 288 289 286 285 283 282 282 285 284 283 283 281 280 281 284 282 278 277 275 275 279 281 283 287 290 292 292 293 295 296 297 298 299 299 300 299 299 299 298 295 295 295 295 294 295 294 294 295 295 295 296 297 298 299 299 301 303 302 301 301 301 302 302
285 286 283 276 274 279 279 280 282 283 284 286 285 286 287 288 286 287 289 289 289 288 287 286 283 283 283 284 285 283 282 283 283 283 285 283 283 281 279 279 279 281 280 279 280 284 284 286 290 292 293 294 295 295 296 296 298 299 300 300 300 300 298 295 295 295 295 295 294 294 295 295 295 295 296 297 297 297 298 299 300 299 298 298 300 301 302
287 284 280 279 281 282 280 280 283 282 284 286 287 287 287 286 286 286 288 288 287 288 288 285 283 283 281 282 283 281 281 283 281 282 285 283 281 278 279 277 278 278 281 283 284 285 288 290 291 292 293 294 295 295 295 296 297 298 299 299 299 299 298 297 295 294 295 294 294 294 294 294 294 295 295 296 297 298 300 300 300 298 298 299 298 297 298
285 283 284 282 281 282 281 283 284 282 282 284 284 285 286 284 285 286 289 289 288 287 285 285 285 283 282 282 280 281 281 282 283 283 281 279 281 281 278 275 278 280 281 282 285 289 291 292 292 291 292 293 294 295 295 295 295 298 299 299 299 299 299 298 297 296 295 295 294 295 294 293 293 294 295 296 296 297 297 296 297 297 298 298 298 297 297
288 284 281 283 282 281 282 279 279 280 282 284 285 286 285 285 286 286 289 290 287 282 282 282 283 282 281 280 279 277 279 284 282 282 282 282 284 280 277 278 278 282 284 287 290 293 293 293 292 291 292 293 293 294 295 295 296 298 299 300 300 299 299 298 297 296 295 296 294 293 295 295 294 295 296 296 296 297 299 298 298 297 297 297 299 299 297
283 281 281 281 284 284 284 283 283 284 285 286 286 287 287 286 286 288 289 286 283 282 282 282 281 280 278 278 280 282 283 281 280 280 280 283 285 283 283 284 285 288 290 291 292 292 291 293 291 292 293 293 293 294 295 295 296 297 298 299 299 299 299 298 298 296 295 295 295 295 296 295 295 295 295 295 294 294 296 298 298 299 298 299 300 301 301
Wind_Speed
19 19 20 21 22 23 25 26 24 23 24 13 10 5 3 3 2 2 4 6 4 2 3 2 1 3 5 4 5 4 5 6 5 2 1 1 1 1 4 4 2 4 5 3 3 4 4 3 3 3 4 4 7 3 3 11 15 12 1 3 5 6 2 6 8 7 6 10 8 4 5 6 2 7 5 6 7 6 5 5 3 7 11 8 3 5 5
19 20 20 21 22 23 25 25 23 21 19 9 7 2 1 2 2 5 2 4 1 2 2 5 7 6 9 8 10 8 5 4 7 2 3 1 2 2 2 2 6 6 4 4 3 2 3 3 3 5 3 4 3 9 5 5 8 10 9 7 9 4 4 4 1 2 2 1 6 6 2 3 2 2 5 9 8 7 7 7 4 5 7 9 4 5 7
17 19 20 20 22 22 23 23 22 23 21 13 1 2 2 4 2 4 4 3 3 3 3 1 6 9 11 9 14 10 3 3 9 4 3 1 3 0 3 5 2 4 5 6 6 8 7 4 4 3 4 5 6 9 1 7 2 10 13 13 9 4 4 3 1 4 3 4 5 5 6 9 3 4 10 10 9 7 5 4 2 4 4 3 4 6 10
18 19 19 20 21 21 21 23 23 24 24 17 2 1 2 3 2 5 4 2 1 4 0 2 4 8 7 10 7 5 8 6 5 5 4 3 4 5 3 2 4 5 3 4 3 5 5 7 4 4 5 5 4 5 10 7 6 7 22 14 12 3 2 3 3 3 4 4 2 5 1 7 8 7 8 8 4 8 8 5 5 5 6 8 8 8 8
17 18 19 19 18 18 20 22 23 24 25 22 3 1 2 1 2 2 5 6 1 4 6 2 4 5 4 4 3 8 10 9 6 5 2 1 1 2 4 2 1 3 4 4 4 4 3 4 6 7 7 5 6 12 14 8 6 16 14 16 4 1 2 5 4 3 3 5 5 8 5 4 4 4 3 3 7 8 7 6 7 4 5 10 6 4 3
17 17 18 18 18 19 19 20 22 24 24 26 2 3 3 3 1 3 0 1 5 7 1 4 11 13 4 4 2 6 10 11 11 7 3 1 1 5 2 4 7 8 6 5 4 2 4 2 2 4 5 6 5 7 2 3 9 10 6 6 2 3 2 3 0 4 5 7 7 7 6 7 5 5 3 3 6 5 6 7 7 4 3 10 9 8 3
16 17 17 17 18 18 18 19 20 22 24 17 3 5 4 2 1 0 3 2 3 1 10 13 10 12 8 3 3 10 10 13 7 4 9 3 3 2 5 12 13 9 1 3 3 4 3 3 2 2 3 4 4 3 5 6 10 1 2 1 1 1 1 2 1 4 6 4 3 4 5 4 4 3 2 5 4 6 6 7 8 7 9 10 8 7 7
16 16 16 16 18 18 17 19 18 18 21 11 7 7 3 5 4 5 2 3 6 7 5 5 6 7 6 5 4 7 8 13 15 12 6 6 6 2 3 14 14 12 3 4 3 4 6 5 4 4 3 9 1 3 2 3 0 3 1 1 2 2 2 2 2 3 4 2 3 4 6 4 2 1 4 5 3 6 4 4 8 8 6 9 10 5 6
14 15 15 15 16 17 17 19 17 16 15 5 6 3 4 1 0 1 5 7 3 3 4 6 7 3 5 7 7 9 10 11 12 13 9 3 6 7 11 12 13 7 4 2 8 8 7 9 11 9 9 7 3 2 5 3 5 3 1 1 2 2 2 2 2 3 5 1 5 4 3 6 3 2 3 3 3 4 2 3 4 2 7 8 5 6 6
13 14 14 14 15 15 16 17 16 13 11 4 4 4 3 2 3 2 0 2 4 5 5 6 3 2 2 4 7 5 13 13 13 10 4 3 4 5 6 10 8 8 7 6 7 11 10 11 12 11 11 11 11 8 10 8 5 4 1 1 0 0 0 3 3 3 2 3 4 3 6 6 5 7 5 4 5 4 4 8 4 5 4 4 3 6 6
12 12 13 13 13 14 15 14 15 12 6 6 4 3 5 5 5 4 1 2 3 4 7 4 4 2 7 9 13 12 11 15 12 9 7 8 12 11 3 6 8 8 7 11 11 10 13 13 14 7 9 9 10 9 9 10 9 7 5 2 1 0 2 1 1 1 5 7 8 2 6 2 5 6 6 6 3 3 4 6 6 6 4 4 3 6 7
11 11 11 11 12 13 13 13 13 12 5 2 0 2 2 3 4 1 2 4 4 2 4 5 6 5 9 12 9 10 13 15 15 9 12 9 13 11 6 4 3 9 11 13 12 13 12 5 2 2 6 9 11 12 11 10 13 5 5 5 2 2 2 2 0 2 5 8 7 5 3 6 3 4 1 1 5 1 8 6 7 5 1 6 4 4 5
9 10 11 11 11 12 12 13 13 12 6 3 3 3 3 3 3 2 2 2 4 5 6 5 7 10 10 12 12 10 12 13 9 13 10 6 11 11 3 6 8 8 12 12 15 11 4 4 6 2 5 4 7 10 9 6 8 3 3 4 7 2 4 1 1 0 2 4 6 1 1 4 7 6 3 2 1 5 1 7 9 5 4 1 1 6 7
8 9 10 10 10 11 11 12 12 10 9 4 4 3 3 4 3 2 1 3 7 3 4 9 5 6 11 11 10 15 12 10 13 5 7 6 10 11 10 6 11 11 8 7 7 4 5 4 3 6 6 6 4 2 2 7 1 4 1 3 1 7 4 3 2 1 1 3 2 3 6 4 2 2 2 2 3 3 6 4 9 7 5 1 2 9 9
8 8 9 9 9 10 10 10 10 10 8 6 1 3 4 4 2 1 1 2 6 10 3 3 6 10 10 12 9 11 8 9 12 14 13 5 3 5 8 11 14 10 5 3 4 3 2 1 4 6 4 6 4 4 4 3 5 5 2 4 3 6 3 2 4 1 1 1 5 3 4 1 3 5 3 5 2 4 2 7 6 4 9 5 7 11 6
8 8 8 8 9 9 10 10 10 10 9 7 2 3 5 3 3 2 3 3 3 7 2 4 6 7 8 10 9 7 6 9 8 10 12 7 7 15 12 13 13 6 6 1 2 2 3 3 3 3 2 2 2 3 3 5 6 8 7 3 5 3 2 7 6 2 2 1 0 1 2 4 3 8 10 10 7 12 4 5 9 4 7 10 12 13 7
8 8 8 9 8 8 9 9 10 9 9 6 2 3 4 2 2 3 3 2 3 9 8 11 8 3 6 8 4 2 4 6 8 7 8 10 13 12 13 14 9 6 11 4 5 4 6 4 1 2 2 2 4 4 5 2 5 7 10 6 6 4 1 1 1 2 2 2 0 1 2 2 5 12 14 14 8 5 3 4 7 6 6 8 4 8 9
8 7 8 8 8 8 8 9 10 10 8 5 3 3 5 4 3 2 3 3 3 6 4 3 3 7 5 3 7 5 3 3 3 3 5 8 8 7 14 10 9 4 6 6 6 4 4 4 8 3 4 1 2 3 4 5 4 4 4 4 1 1 1 1 3 1 3 5 1 2 3 4 6 14 17 15 7 2 5 9 4 3 7 8 3 2 3
8 7 8 8 7 8 9 9 9 9 7 5 3 4 4 2 2 2 4 4 3 7 4 4 6 9 8 4 8 5 3 5 5 6 8 8 1 7 16 9 3 7 8 6 5 3 4 3 2 2 3 4 2 3 4 4 4 5 3 3 2 2 1 2 1 1 2 3 3 4 4 2 8 16 16 9 1 1 4 5 7 9 7 0 6 5 2
8 7 8 8 8 8 9 9 9 8 8 8 4 3 6 6 4 3 5 6 3 9 11 11 6 12 3 3 4 6 7 6 3 4 2 7 4 13 8 4 3 3 5 2 5 2 3 5 5 3 2 3 3 4 3 2 1 3 4 3 1 3 2 2 2 2 1 3 2 2 1 2 10 16 11 8 3 2 4 9 14 6 5 4 5 4 3
9 8 8 8 8 8 8 9 9 8 8 8 5 3 5 2 3 2 2 5 8 11 9 3 3 8 5 8 10 10 7 12 8 5 7 8 7 5 6 4 9 5 4 5 7 5 3 4 5 2 2 3 5 4 7 6 5 4 4 2 1 1 1 3 2 0 1 1 1 1 1 9 8 6 2 8 5 8 8 7 7 13 4 4 4 5 3
9 8 8 8 8 8 8 9 9 8 8 9 8 2 4 3 4 3 4 3 6 7 8 10 10 14 15 15 15 13 14 16 18 11 8 8 2 4 5 6 8 2 1 1 2 2 2 2 2 2 4 4 1 3 6 3 5 5 5 1 3 2 2 4 3 3 0 1 1 3 5 7 6 3 4 5 9 6 7 3 3 10 7 3 4 4 3
9 8 8 8 8 8 9 9 9 8 8 9 6 1 5 7 5 4 4 6 5 8 8 10 9 10 11 13 15 15 14 13 14 10 9 8 7 3 7 5 6 3 1 2 1 3 5 4 3 3 4 2 3 6 2 1 3 3 6 3 4 3 4 3 1 4 4 5 5 4 5 6 7 3 2 4 7 9 8 6 10 12 11 4 5 4 5
9 9 8 8 8 8 9 9 10 8 8 8 6 3 4 4 5 5 4 4 5 8 8 4 2 6 2 6 3 4 6 8 11 13 10 9 6 7 3 5 3 1 1 2 2 3 3 1 4 1 3 4 4 3 5 4 3 3 3 4 2 3 1 1 2 3 3 3 2 4 6 6 5 7 8 4 7 9 10 10 11 14 14 3 4 4 4
10 9 8 8 8 8 9 9 10 9 8 9 8 5 5 4 2 2 5 4 3 2 7 8 8 12 10 8 10 12 8 7 4 5 4 10 13 10 8 7 5 3 5 5 1 2 1 1 3 1 4 4 1 6 3 2 5 2 5 4 4 2 2 2 3 3 0 4 5 7 7 6 6 5 7 9 9 9 10 8 10 13 16 3 4 4 6
10 10 9 8 7 8 9 10 10 8 7 10 10 5 5 6 3 3 3 5 6 4 6 5 8 4 6 14 13 7 9 9 10 11 10 12 15 16 16 6 6 1 1 1 2 2 2 2 2 2 1 5 1 2 4 1 7 5 2 6 2 4 6 2 3 1 5 5 4 6 8 3 5 7 6 5 5 5 7 10 10 12 12 6 12 9 5
11 10 9 7 7 7 9 9 10 9 9 10 6 5 5 6 4 5 4 3 4 3 1 5 9 13 5 17 17 8 4 5 7 8 9 10 13 12 10 9 10 5 3 4 2 1 1 1 1 3 3 4 2 5 4 4 1 4 4 5 4 3 2 2 5 5 4 1 4 6 2 3 9 10 9 9 8 7 8 9 6 7 7 8 12 13 10
11 10 8 7 7 7 8 9 10 9 9 10 7 7 5 5 5 5 6 5 4 3 5 8 10 16 15 10 4 7 14 9 6 8 7 8 10 11 11 12 9 5 4 2 5 1 1 2 6 3 1 5 3 5 2 2 1 2 2 5 3 4 4 3 3 0 3 7 8 6 4 4 5 7 10 11 10 9 8 7 3 3 6 9 12 14 12
10 9 8 7 7 7 7 9 9 7 8 7 6 7 5 6 7 6 7 5 4 4 5 7 9 5 3 13 19 15 9 5 9 8 8 9 6 8 10 11 9 8 2 2 1 0 1 5 2 2 2 3 0 5 5 4 3 2 3 5 4 2 2 2 1 4 6 4 8 8 5 4 8 12 11 9 7 6 3 2 2 1 7 10 13 13 8
11 10 8 7 7 7 7 7 7 5 6 4 3 1 2 1 1 4 2 3 1 2 2 5 7 5 4 5 11 10 13 14 10 7 7 6 5 7 10 8 8 7 5 4 3 3 4 2 2 3 2 1 2 1 1 2 3 3 1 2 3 3 3 3 2 3 4 3 5 6 5 8 9 11 10 8 5 3 2 5 5 5 8 12 14 10 2
12 9 9 8 7 7 7 7 7 7 5 2 1 2 2 1 1 1 4 5 5 2 1 2 7 7 8 4 4 12 15 15 10 10 10 6 7 9 8 8 4 5 3 1 0 4 1 2 0 3 1 1 2 0 2 2 3 5 3 4 4 4 4 4 4 1 2 6 5 3 2 3 3 8 7 2 3 3 4 7 7 9 8 10 9 3 2
12 10 8 7 7 7 8 8 8 5 1 2 2 3 3 2 2 4 5 4 6 3 2 5 6 2 4 6 4 5 10 11 5 3 3 1 1 0 1 6 5 5 5 3 3 0 3 4 2 3 1 3 3 1 1 1 3 4 9 8 6 5 3 3 3 4 2 3 6 6 7 8 5 7 7 11 5 5 7 6 8 9 10 9 6 7 8
11 9 8 7 7 8 8 9 8 4 3 6 12 17 20 23 21 17 7 3 1 2 1 1 3 3 4 6 10 8 3 4 4 4 6 2 1 0 1 1 0 1 2 2 1 2 3 2 1 2 3 0 1 1 0 2 3 3 4 4 5 4 4 1 1 2 1 2 2 3 3 6 4 4 6 7 5 7 6 6 5 10 12 12 11 10 9
10 8 7 7 8 8 9 9 7 7 7 4 6 6 6 14 14 16 3 4 1 1 1 0 3 4 7 6 5 8 3 4 4 3 4 5 0 0 2 1 1 0 1 4 4 0 3 1 2 4 2 2 0 1 1 2 5 5 5 3 3 3 4 3 3 4 3 4 3 2 2 5 5 4 2 5 9 6 6 7 9 12 10 10 9 7 4
9 7 7 7 7 8 9 8 4 2 4 3 5 6 4 9 7 6 10 4 3 0 0 1 1 4 5 5 3 8 3 3 4 4 1 6 1 2 1 0 2 1 4 1 1 2 1 3 3 1 3 2 1 0 1 2 3 4 5 5 4 3 5 5 3 3 3 4 6 6 6 6 9 9 8 6 6 5 7 6 7 9 9 7 7 5 3
8 7 6 6 7 7 3 4 3 3 3 4 6 4 2 5 7 5 4 1 1 1 0 1 1 3 2 4 4 5 3 5 3 2 2 1 6 1 2 1 2 5 1 1 3 1 1 2 1 2 2 2 1 1 0 1 4 4 4 4 3 2 3 2 4 3 4 4 4 5 7 8 10 8 7 7 7 7 5 6 7 7 7 7 6 6 6
7 5 3 3 3 0 2 2 2 4 5 4 3 6 7 5 4 3 1 1 1 1 2 1 3 5 5 4 2 6 3 5 4 4 4 3 3 2 1 1 2 3 1 2 1 2 4 1 1 1 3 2 2 3 3 1 5 4 3 2 4 5 6 7 6 5 6 7 8 7 7 7 7 7 7 7 7 5 8 8 6 5 6 5 4 5 4
5 4 2 0 1 1 1 2 2 3 4 5 4 2 2 2 0 0 1 1 2 2 1 2 5 3 2 2 5 6 0 6 2 2 4 1 2 3 0 0 3 0 3 2 4 4 2 2 1 1 2 3 7 12 16 10 3 3 4 5 5 5 5 5 6 8 8 9 9 8 8 8 7 5 5 6 6 6 5 4 5 5 4 3 2 2 5
6 2 0 1 1 2 2 1 2 3 2 1 1 0 1 0 1 1 1 1 0 2 2 4 6 4 3 3 8 4 4 2 5 2 1 3 1 5 2 2 4 1 2 2 3 0 1 2 1 2 5 10 12 14 14 13 11 4 5 5 6 6 7 7 6 7 6 5 4 4 2 4 5 5 4 4 4 4 4 4 4 5 4 4 4 5 5
2 2 2 2 3 5 4 3 3 1 1 0 1 1 1 0 1 1 1 1 2 2 2 5 4 5 8 9 3 7 1 1 3 5 2 7 1 1 2 0 3 1 2 0 3 2 1 1 3 6 8 9 9 11 13 10 9 12 4 5 5 5 6 7 7 5 6 6 6 7 6 4 3 4 4 4 4 4 5 5 4 4 4 5 6 7 6
2 1 1 2 3 1 2 3 2 1 0 0 0 0 0 1 2 2 1 1 2 3 3 4 2 3 4 4 2 6 7 0 2 1 1 2 3 1 1 1 1 1 2 1 3 1 2 4 3 3 4 7 8 9 9 9 9 8 8 6 4 6 6 7 6 6 8 9 9 9 8 6 7 6 5 4 4 4 4 4 4 3 3 5 9 8 7
3 3 1 0 1 2 2 1 1 0 1 1 1 1 2 2 1 1 1 2 3 1 2 3 3 3 4 10 7 4 5 2 1 1 0 2 2 0 3 1 1 0 1 1 1 3 4 4 2 3 5 4 6 9 9 8 7 9 9 10 8 2 6 5 6 5 6 7 6 6 6 7 8 8 6 6 5 5 5 7 8 6 4 1 1 3 7
4 4 2 1 1 1 0 0 1 1 0 0 1 2 1 0 2 2 2 1 2 1 2 3 3 2 1 2 1 3 2 0 0 1 1 2 3 1 1 1 1 1 2 3 2 2 4 2 3 5 7 7 5 5 7 6 6 6 9 9 11 6 4 5 6 5 5 6 6 5 5 7 7 6 6 6 6 6 6 5 6 6 7 6 4 3 4
2 1 1 0 1 2 1 1 1 1 1 0 2 2 1 1 5 1 1 3 1 0 1 2 2 5 3 2 1 2 1 2 2 1 1 1 1 1 1 1 1 4 1 2 2 4 2 1 0 3 7 6 5 4 4 6 6 7 9 9 8 9 4 4 4 6 5 4 4 4 4 5 4 5 5 5 5 4 4 5 5 6 7 6 6 5 4
2 1 0 1 0 1 1 2 0 1 3 3 2 3 2 2 1 3 4 4 2 1 1 1 3 3 2 5 1 0 1 1 1 2 2 0 1 1 0 2 2 2 1 0 2 1 2 3 5 4 5 6 7 7 7 5 5 5 8 8 9 10 7 1 3 3 4 3 3 3 4 4 5 4 3 3 3 3 4 4 3 5 5 6 6 6 5
1 2 2 3 1 2 1 1 1 1 2 2 3 6 4 7 4 5 6 2 0 1 3 2 2 3 3 2 1 1 1 0 1 1 1 1 1 1 2 1 1 1 2 3 2 1 1 4 5 6 5 6 7 8 7 6 5 4 4 7 8 8 7 4 1 3 3 3 1 4 2 3 4 4 2 3 2 3 4 3 3 3 4 6 5 4 4
0 0 0 0 1 2 1 2 3 3 2 2 5 4 6 7 6 7 5 1 1 2 1 1 4 2 1 3 2 4 2 0 1 2 1 1 1 2 1 1 1 1 2 1 1 1 3 5 5 5 5 6 7 8 8 8 7 6 5 3 6 7 10 5 2 0 0 2 3 3 2 1 1 2 3 4 3 3 3 3 3 3 3 3 2 3 3
2 2 2 1 3 2 4 4 1 4 3 3 5 5 7 4 4 7 7 1 3 2 4 1 2 4 4 3 2 2 2 0 0 3 1 1 1 1 2 2 1 1 0 2 1 3 4 4 5 6 6 6 5 7 8 9 8 8 8 9 9 9 9 5 2 2 2 4 3 2 1 0 2 2 3 2 1 2 2 2 1 3 3 3 4 4 4
1 0 2 2 2 1 2 3 1 4 5 4 6 6 6 6 7 6 5 0 3 3 1 2 2 2 1 2 1 1 2 1 1 1 1 1 0 0 0 0 1 1 1 1 2 3 3 4 4 5 5 5 6 6 6 7 6 7 6 7 7 7 6 7 5 4 3 3 3 3 3 2 2 2 1 1 1 0 1 1 3 3 3 3 3 3 3
1 1 1 0 2 4 4 1 2 5 4 6 6 5 5 4 5 2 1 1 1 1 3 4 2 2 1 0 1 0 1 1 0 1 1 1 1 0 1 2 0 0 3 1 2 7 6 5 4 4 4 4 6 6 7 7 7 7 7 6 6 6 6 6 7 6 4 4 4 4 4 2 1 1 0 1 1 2 2 0 2 3 2 3 3 3 3
0 1 3 4 5 4 1 0 1 3 6 6 6 6 3 3 1 4 2 0 1 3 4 1 0 1 1 1 0 1 1 0 1 1 1 0 1 1 1 0 2 3 6 6 7 7 5 4 3 3 3 4 4 6 6 7 8 7 6 7 7 6 7 7 7 7 5 4 3 3 1 2 2 2 2 1 2 2 1 1 1 3 4 3 3 4 3
1 1 2 3 4 5 5 4 3 6 8 8 6 6 3 4 3 5 2 3 3 3 0 0 1 1 1 0 0 1 1 1 0 1 2 1 0 2 0 2 4 5 5 5 6 5 4 4 2 1 1 4 5 6 6 7 8 8 7 7 6 7 7 8 8 7 4 2 2 3 3 3 2 2 2 3 4 3 0 2 1 3 3 4 3 3 3
Wind_Direction
342 341 342 344 344 344 342 343 340 344 350 357 351 333 5 33 221 282 159 193 135 67 285 256 244 236 242 260 269 270 296 276 288 302 188 263 127 252 235 224 257 232 216 248 265 279 264 255 226 270 297 261 218 321 224 174 160 148 123 143 169 164 269 240 253 268 180 201 270 195 133 100 174 231 212 211 239 233 230 250 320 313 301 307 302 265 254
342 342 342 344 345 344 342 341 339 342 357 344 321 18 335 291 281 318 231 207 57 75 267 309 310 295 308 320 294 298 269 287 301 267 297 257 220 222 240 300 225 280 233 232 256 276 313 275 260 302 285 291 298 343 350 169 154 152 181 180 161 202 193 230 279 27 34 358 170 153 132 122 171 208 227 228 247 258 267 276 250 250 241 233 229 240 272
342 342 343 344 345 346 342 339 338 342 345 353 325 340 298 279 250 223 290 250 263 227 190 222 298 312 315 319 308 316 294 251 292 244 262 199 229 172 253 204 275 262 283 280 260 259 247 283 292 269 271 280 319 293 280 319 251 197 172 183 152 207 203 178 0 88 102 128 154 151 169 188 182 225 235 246 247 258 294 280 274 259 283 221 230 271 257
342 342 343 345 346 347 344 340 342 343 342 354 124 262 342 17 27 310 351 350 313 271 224 274 289 306 325 319 291 302 309 312 281 146 255 221 227 208 277 14 276 258 265 284 280 280 214 212 297 349 309 313 289 258 290 297 238 180 173 168 153 222 189 218 187 134 136 207 215 285 21 124 201 212 221 242 254 249 248 270 269 254 286 309 260 236 294
342 341 343 345 346 348 348 344 345 346 343 349 110 329 158 270 60 351 331 316 321 275 301 325 10 288 318 297 306 324 321 311 316 155 306 168 221 265 217 232 309 272 302 298 297 254 279 243 270 270 269 244 252 283 283 281 205 171 169 162 150 95 335 267 227 232 220 213 206 233 231 183 188 206 265 294 263 265 266 225 246 258 328 295 257 302 247
342 343 344 346 348 352 351 350 349 348 347 341 23 34 5 56 310 89 114 277 283 338 317 4 319 307 319 259 300 314 333 343 337 326 201 151 52 356 291 204 228 249 278 303 297 301 298 231 240 290 245 272 284 300 285 214 150 143 139 180 172 148 196 280 224 304 250 238 227 219 210 202 179 173 187 246 269 283 277 264 245 275 224 251 278 339 314
341 343 345 346 349 353 354 355 353 352 345 344 36 53 340 82 319 22 12 15 291 283 290 309 284 292 296 256 348 340 341 332 325 311 310 337 306 122 306 323 326 328 18 144 231 294 329 327 261 254 279 283 310 319 326 68 118 195 151 325 141 97 255 217 301 295 290 264 207 190 217 193 163 140 193 234 258 275 248 257 271 292 283 271 287 307 284
339 342 343 347 350 352 356 356 359 357 346 344 46 53 44 14 359 327 340 232 283 282 282 270 292 300 340 5 337 337 332 330 330 335 325 314 328 161 302 314 323 321 349 160 215 220 216 246 272 281 292 317 207 257 202 268 171 160 148 190 264 100 283 3 334 347 298 294 272 211 198 128 90 201 207 239 258 278 271 313 304 299 301 298 300 309 310
339 341 342 347 348 352 356 358 360 2 353 24 19 36 34 288 189 245 322 317 264 274 295 313 302 328 353 10 343 334 330 324 325 304 287 241 314 329 314 301 307 305 313 198 228 254 253 254 237 233 253 251 253 44 292 17 341 317 62 19 326 58 258 25 37 33 316 315 359 329 110 91 99 266 260 277 304 297 297 292 260 14 280 274 301 349 305
335 339 342 346 347 350 356 358 0 6 8 53 336 28 323 309 299 341 179 287 306 343 317 303 328 9 25 350 328 334 309 308 327 324 288 311 283 259 295 298 307 311 334 312 312 314 296 267 254 232 231 231 252 244 258 275 263 294 189 151 66 192 132 25 349 49 261 277 7 342 77 51 354 282 239 210 229 236 301 301 293 193 215 286 100 243 237
331 335 338 342 346 348 352 355 1 6 26 34 10 342 335 0 343 333 18 304 311 12 343 318 14 300 343 336 329 327 316 322 330 348 315 321 322 321 301 311 335 316 318 316 305 285 273 264 263 243 234 242 247 260 258 270 254 221 191 113 265 91 111 112 331 84 263 312 338 328 66 67 231 238 198 166 185 259 265 255 245 253 157 260 204 245 292
322 330 334 338 342 345 350 352 359 2 33 30 161 259 270 333 306 251 356 343 292 24 24 292 316 313 324 322 325 311 316 318 312 319 304 303 305 315 313 315 349 338 309 310 310 309 293 273 239 227 239 244 252 260 265 270 278 243 192 143 149 136 107 96 342 54 316 326 351 72 114 212 240 264 123 169 254 279 243 253 268 282 129 253 324 318 313
314 325 330 332 337 343 350 350 355 357 2 17 59 343 289 318 283 293 303 295 281 329 337 299 304 293 293 314 317 312 305 293 296 310 296 305 319 325 320 333 327 279 290 307 315 321 359 307 302 267 266 280 266 261 272 290 288 289 186 136 125 127 88 125 25 248 332 12 17 74 226 251 279 291 266 227 211 238 291 341 303 266 248 147 0 280 275
308 319 323 329 333 340 347 348 349 357 346 360 19 311 289 330 329 334 3 333 297 251 273 294 283 306 325 319 316 311 312 319 325 315 334 329 318 322 324 338 317 305 294 307 311 341 356 26 2 2 332 355 355 19 314 320 287 31 242 265 103 130 94 88 32 352 57 311 336 233 276 324 0 1 303 196 243 150 133 222 270 280 278 141 212 268 275
305 312 321 325 328 334 343 341 342 350 344 331 357 300 306 307 300 271 289 238 289 299 231 233 329 328 322 312 325 322 328 332 343 331 317 287 275 319 307 325 323 324 300 342 340 23 75 343 20 354 334 29 8 296 327 353 304 307 248 218 157 148 124 196 90 317 84 44 346 343 26 346 275 245 307 6 297 294 174 171 277 270 258 241 205 236 221
297 308 315 318 323 330 334 334 332 341 336 338 336 304 285 270 283 250 240 258 314 307 252 206 328 317 322 311 311 306 321 331 330 317 319 331 321 330 339 339 322 328 342 15 339 35 10 57 345 8 347 320 278 281 322 336 327 322 334 190 117 20 69 135 127 157 56 45 56 284 141 245 221 302 313 318 338 336 290 168 261 257 212 239 203 207 201
288 300 307 311 319 325 327 324 326 334 333 350 338 303 293 329 328 288 301 282 194 247 282 298 286 269 320 307 334 354 356 325 342 351 332 326 328 313 318 334 313 357 360 30 359 22 10 24 289 223 258 300 315 316 297 331 329 329 346 66 65 63 10 74 97 121 143 135 124 287 209 260 327 321 319 312 315 311 113 134 250 252 261 278 207 195 177
280 290 295 304 309 318 319 319 323 333 337 351 329 297 281 304 276 282 247 251 274 274 241 206 28 321 301 241 295 289 281 300 323 283 243 292 300 330 334 332 336 9 18 28 353 23 3 12 360 349 318 253 286 290 336 347 325 340 329 313 283 0 321 318 228 149 142 128 262 321 311 288 329 321 315 315 317 106 130 193 238 267 288 278 206 176 131
268 281 287 295 304 311 312 313 320 335 343 324 307 276 254 234 297 306 259 261 222 265 219 276 304 268 258 253 252 259 273 308 315 321 307 324 281 345 321 294 354 340 3 356 355 21 5 348 308 334 323 314 358 334 319 342 336 321 304 359 6 333 330 296 7 260 202 174 153 218 241 237 334 329 322 307 50 134 212 247 285 296 284 329 105 99 72
255 267 279 289 298 302 307 309 317 330 329 340 353 289 283 291 271 237 284 293 245 266 285 279 257 258 238 220 272 295 306 300 219 227 273 281 311 348 320 353 331 341 314 318 28 339 19 351 344 327 317 299 292 314 300 289 234 319 323 285 137 336 332 277 284 267 103 72 71 12 348 271 5 334 332 23 49 238 282 309 305 289 292 84 57 82 101
248 258 270 280 288 297 302 304 312 320 325 335 348 304 310 258 275 284 253 295 299 297 294 229 230 225 230 244 238 247 252 259 266 266 245 259 307 340 337 326 315 345 337 13 350 346 346 327 343 334 294 291 312 334 343 323 297 273 286 326 20 245 48 325 303 270 325 51 119 140 225 284 315 351 346 319 306 290 293 299 310 305 328 6 62 43 82
240 250 264 273 286 294 297 300 307 315 321 328 333 306 275 285 309 305 294 273 275 248 265 283 279 274 264 256 257 248 244 246 250 236 260 285 237 229 258 281 289 288 273 330 350 319 352 313 288 328 318 308 264 289 312 326 350 334 315 249 353 37 155 202 230 300 135 212 224 253 281 280 277 242 254 270 297 308 288 332 336 285 317 329 78 97 90
232 243 255 269 282 291 294 297 304 308 318 324 325 219 289 301 298 299 307 285 243 259 265 272 272 268 270 260 246 243 238 236 244 238 217 237 293 242 229 258 274 235 240 134 309 251 281 308 280 265 296 272 318 313 324 232 263 336 344 315 229 258 229 171 267 275 265 249 224 269 296 302 311 293 271 309 324 323 298 357 2 323 298 296 126 130 126
224 237 245 261 275 285 289 294 302 305 315 313 308 285 286 256 286 306 294 258 284 298 288 210 342 310 258 283 269 229 239 244 223 231 217 181 227 291 295 232 222 298 287 241 193 271 280 272 254 319 292 269 319 301 327 345 300 298 325 319 322 339 220 184 234 289 9 315 311 327 317 312 321 325 321 352 20 336 306 3 11 330 307 341 53 86 77
222 231 242 254 266 279 287 292 296 305 311 311 309 283 270 283 239 258 314 315 311 327 296 305 267 247 260 263 293 292 264 242 250 241 196 187 203 218 242 227 179 206 257 266 337 6 47 299 317 347 298 288 308 294 241 278 296 43 336 281 333 314 317 290 267 333 283 256 305 320 314 304 298 311 338 1 356 333 313 7 15 327 293 305 64 76 81
221 230 239 248 262 278 285 291 299 302 300 305 309 295 285 275 271 271 257 262 253 272 294 297 274 295 321 314 298 275 288 281 257 255 233 216 211 214 235 276 298 325 303 288 188 229 228 254 228 248 241 295 144 236 280 195 265 288 260 273 249 275 337 302 337 322 293 306 320 323 316 325 337 350 356 345 345 318 342 18 6 311 301 356 55 54 80
221 226 235 247 259 274 285 295 300 302 308 308 300 272 264 271 242 229 228 263 321 287 196 261 296 300 337 306 292 301 270 275 276 254 254 229 217 221 230 246 256 293 306 307 307 195 137 255 140 257 199 240 248 261 270 312 263 313 316 276 299 345 315 312 42 10 333 251 295 331 32 341 334 345 342 354 355 349 21 28 352 306 337 5 55 55 58
216 222 232 243 259 273 286 295 300 306 307 309 300 280 261 256 238 207 213 210 196 254 297 298 308 300 310 267 252 310 302 293 265 265 254 242 219 210 212 230 235 255 256 233 300 328 184 321 270 238 266 293 340 301 280 263 55 3 293 293 345 327 332 17 54 233 261 288 315 342 357 310 283 292 332 0 358 354 12 30 329 345 20 25 47 58 49
215 219 226 239 253 269 282 292 301 305 309 320 304 299 286 244 245 222 219 215 234 293 288 282 278 305 316 309 314 315 303 291 289 278 275 274 230 197 207 213 214 216 190 174 164 153 177 233 205 228 248 222 135 279 357 341 357 320 287 306 319 280 294 294 303 247 265 314 334 341 353 346 312 322 330 332 348 347 311 297 293 29 60 55 48 47 33
211 215 224 239 252 267 278 286 296 307 322 342 338 351 16 335 24 40 46 95 217 251 329 337 320 271 294 308 292 296 301 309 302 283 267 263 225 203 210 203 225 213 189 185 166 262 226 218 266 276 266 182 214 233 356 272 324 257 273 299 230 284 286 294 260 306 297 311 312 316 332 340 332 318 306 291 273 246 337 328 308 47 57 65 62 46 357
208 211 221 235 249 261 272 280 290 296 325 19 9 24 41 16 279 144 68 48 20 46 240 165 257 300 306 246 268 294 302 305 305 306 296 262 215 206 210 194 221 152 182 195 174 232 136 275 232 275 271 197 137 153 245 341 313 309 301 326 292 275 278 285 297 230 296 336 320 331 34 0 347 309 246 311 26 51 16 308 353 46 60 79 88 130 58
207 212 222 235 249 257 263 273 279 284 244 207 198 193 181 191 214 287 323 30 22 32 357 316 303 319 297 298 268 276 289 285 281 291 287 263 326 276 225 185 224 192 163 172 208 107 237 218 156 257 295 252 105 258 355 57 332 324 325 320 305 297 260 256 316 339 16 324 330 17 10 358 5 343 323 323 355 82 104 58 35 43 36 49 58 54 51
205 210 223 238 248 259 268 275 280 268 234 257 255 264 271 272 271 267 263 280 64 220 184 267 274 303 285 285 318 301 250 324 333 9 325 317 274 52 321 318 318 306 249 142 255 218 217 154 180 345 265 68 107 222 85 291 243 237 262 286 303 335 3 328 238 245 312 320 310 85 43 296 297 318 310 309 7 26 42 70 76 66 54 45 35 34 45
203 210 225 241 255 269 278 284 289 305 300 290 301 258 247 245 249 253 164 119 149 225 90 163 292 294 282 315 336 280 338 355 283 347 337 296 211 75 245 353 355 73 281 174 255 30 324 45 242 237 354 295 202 74 341 274 280 304 313 324 293 343 355 359 347 5 343 329 334 278 254 263 270 235 274 26 35 20 33 37 51 58 55 53 45 34 26
199 207 224 247 266 278 286 290 293 244 264 259 257 258 235 241 225 159 150 137 104 354 269 251 212 304 316 331 319 277 306 2 325 308 270 274 353 224 281 3 319 53 283 102 0 190 216 248 174 35 269 274 46 13 264 290 348 15 24 28 356 351 346 2 338 314 330 356 320 308 312 2 28 23 13 7 21 25 53 48 51 64 58 51 48 34 33
192 206 233 263 284 293 309 273 205 211 226 239 229 271 155 87 99 127 152 122 119 138 291 244 199 241 254 299 309 288 335 317 258 306 260 296 342 322 86 120 355 256 232 109 215 333 223 252 78 279 291 48 261 205 259 157 76 39 40 28 352 43 13 320 299 350 13 21 41 24 18 25 34 19 13 12 13 8 25 52 47 62 68 61 51 42 31
185 209 250 294 306 176 254 233 178 183 218 223 152 86 60 76 80 91 69 325 343 61 209 260 253 230 193 236 268 273 8 321 311 342 329 9 295 277 39 42 237 269 21 334 328 240 260 58 96 5 346 89 351 295 278 121 95 85 51 23 19 24 29 26 42 64 38 32 30 27 25 31 30 21 19 22 9 4 27 29 20 43 75 73 54 57 45
158 122 89 269 128 19 323 299 215 252 156 128 131 60 347 21 83 334 97 183 253 187 251 214 255 254 197 198 254 252 353 265 26 345 308 258 358 309 315 204 235 85 301 248 252 188 91 40 68 127 45 20 351 2 352 335 19 62 41 19 15 22 30 30 36 46 39 26 20 9 15 25 30 13 25 11 13 18 15 3 28 16 6 53 65 78 61
135 149 101 225 148 218 197 247 165 103 101 209 87 46 308 1 84 305 246 222 337 227 233 214 250 208 173 217 263 268 206 257 314 16 341 272 76 305 359 20 298 44 303 19 304 284 347 347 358 48 32 355 4 348 344 348 336 4 56 52 59 52 49 41 34 58 62 60 25 3 33 45 30 7 356 23 16 18 5 9 15 14 13 9 23 26 28
101 130 175 173 212 235 257 310 55 83 49 155 300 106 287 172 110 260 140 105 268 238 183 240 218 204 194 201 209 310 207 171 296 308 258 310 203 191 263 342 268 59 289 54 265 17 107 352 8 44 356 344 338 339 333 335 349 321 357 41 46 44 61 60 54 52 58 35 30 29 29 26 34 28 13 6 26 31 21 8 5 8 13 17 11 14 3
176 166 166 220 248 273 275 304 343 59 91 11 5 4 74 304 239 200 135 246 237 238 183 202 204 237 223 214 194 247 281 255 237 154 122 253 259 65 40 274 240 73 296 308 284 46 66 67 41 63 312 302 323 324 323 332 338 330 340 341 53 79 69 65 56 52 50 41 28 26 15 22 26 23 18 25 20 19 22 9 2 15 28 28 19 359 0
167 152 186 208 281 293 334 7 94 54 339 163 123 263 216 217 267 332 168 183 251 230 237 182 246 220 231 181 198 194 271 217 133 88 86 317 291 318 262 281 352 80 294 252 305 41 48 67 26 343 289 320 315 313 327 328 332 329 339 347 340 48 87 81 76 54 71 75 64 45 30 29 27 20 18 25 33 24 16 16 16 11 3 36 87 46 53
96 92 91 33 20 315 139 19 271 126 135 298 48 324 310 308 222 192 259 247 265 223 256 158 236 239 312 79 318 216 210 216 32 315 59 248 295 47 30 326 36 14 264 293 58 52 54 57 19 324 307 306 293 314 312 302 293 314 338 343 355 310 116 109 91 84 74 86 75 71 53 38 29 22 16 26 31 33 21 24 23 14 17 36 42 49 65
84 72 40 353 69 287 82 280 242 62 326 191 137 220 250 303 303 319 283 267 234 311 271 92 325 72 338 282 207 292 0 349 42 76 333 283 69 309 28 331 286 252 257 31 49 70 121 187 235 259 281 295 322 312 300 317 339 340 342 338 353 347 343 81 83 89 78 72 76 76 67 62 49 25 22 25 27 38 29 27 12 24 25 29 30 37 45
87 38 46 25 33 259 70 306 262 146 209 231 187 219 184 192 238 189 206 248 125 216 258 103 90 63 336 280 23 336 123 238 300 93 256 315 0 301 112 267 262 15 69 91 39 7 32 340 310 316 320 332 321 334 333 341 328 331 313 324 343 348 334 341 105 97 106 99 114 80 69 63 55 19 10 18 3 21 53 23 359 31 23 30 30 31 22
129 161 120 99 319 290 178 236 174 252 265 168 208 199 198 239 199 246 250 241 167 303 76 86 90 76 353 275 124 254 317 83 28 239 215 71 88 293 250 270 61 43 19 47 54 64 238 268 291 306 310 322 331 326 331 324 319 325 327 335 323 323 343 318 278 122 147 135 104 90 90 75 86 73 10 331 2 10 22 28 39 54 50 50 40 40 20
55 13 135 135 127 258 136 194 230 208 188 233 230 209 219 245 233 252 267 211 153 213 140 216 103 155 36 315 8 343 2 57 248 270 68 32 208 261 354 74 351 4 78 53 357 271 280 282 291 295 306 322 332 335 331 329 326 334 338 310 306 333 327 310 297 105 135 100 91 86 72 55 26 58 64 47 8 345 341 359 29 55 77 92 76 56 40
160 221 112 137 221 197 199 242 212 288 273 250 271 262 249 241 271 279 276 228 159 107 85 54 18 348 8 300 86 226 250 329 332 297 180 218 7 40 5 33 51 59 121 146 239 227 238 260 279 305 309 319 334 346 340 338 336 338 336 336 335 333 328 333 291 251 170 137 154 157 182 146 61 84 104 115 32 331 358 6 35 75 76 50 42 31 26
170 143 173 213 212 205 241 246 186 264 278 313 282 283 296 306 276 261 258 356 88 118 166 117 189 96 261 263 36 24 330 301 75 270 344 17 104 254 39 343 14 42 283 209 248 244 232 268 294 302 304 327 342 345 339 330 330 333 339 334 324 317 325 346 319 275 205 175 192 187 220 207 164 138 131 80 69 298 270 97 88 82 109 109 93 70 44
102 316 315 193 351 309 257 253 310 288 322 320 334 327 301 315 332 287 233 27 341 51 10 32 32 97 245 90 320 357 274 308 179 307 32 355 307 334 57 54 21 219 276 261 276 273 280 281 301 315 310 325 335 341 339 335 334 336 341 332 331 335 337 323 313 301 270 206 202 219 226 216 236 170 148 187 208 242 264 51 107 114 122 139 128 109 90
248 158 237 178 172 222 59 102 216 299 314 300 299 298 308 300 303 292 300 102 41 41 39 82 257 75 358 20 29 44 270 243 38 334 146 221 309 74 109 155 248 229 244 233 224 241 252 263 265 258 305 335 331 331 337 339 333 329 337 342 333 339 329 323 309 280 251 241 211 158 176 216 239 232 264 307 30 35 312 306 135 168 161 150 147 136 134
186 212 249 270 227 225 235 252 269 246 248 263 280 267 262 283 287 271 299 83 52 78 188 261 69 55 53 91 228 244 290 31 315 17 35 312 126 102 179 216 245 248 254 274 267 247 237 258 234 240 342 2 343 343 338 343 340 332 331 337 355 345 330 326 331 337 312 274 221 179 206 233 243 295 9 14 21 25 119 248 228 194 175 156 162 158 161